Tracking 21992 objects as of 28-Nov-2020
HD Live streaming from Space Station
objects crossing your sky now

COSMOS 407

Track COSMOS 407 now!
10-day predictions
COSMOS 407 is classified as:


NORAD ID: 5174
Int'l Code: 1971-035A
Perigee: 774.6 km
Apogee: 801.1 km
Inclination: 74.0 °
Period: 100.5 minutes
Semi major axis: 7158 km
RCS: 2.2662 m2 (large)
Launch date: April 23, 1971
Source: Commonwealth of Independent States (former USSR) (CIS)
Launch site: PLESETSK MISSILE AND SPACE COMPLEX (PKMTR)
aabbcc
Your satellite tracking list
Your tracking list is empty




NASA's NSSDC Master Catalog

Two Line Element Set (TLE):
1  5174U 71035A   20333.42190068 +.00000038 +00000-0 +23191-4 0  9995
2  5174 074.0443 215.2601 0018510 176.7510 183.3765 14.33298578590131
Source of the keplerian elements: AFSPC